Location: Boneville
(33.4331°N, 82.4399°W)
Time: 10:19:14
(UTC+00:00)

ISS - Visible Passes

Search period start: 20 September 2024 00:00
Search period end: 30 September 2024 00:00
Orbit: 413 x 423 km, 51.6° (Epoch: 20 September)

Date Brightness Start Highest point End Pass type
(mag) Time Alt. Az. Time Alt. Az. Time Alt. Az.
27 Sep -1.2 01:02:11 10° N 01:03:00 13° N 01:03:00 13° N visible
28 Sep -1.3 00:15:14 10° NNE 00:16:03 11° NNE 00:16:52 10° NE visible
29 Sep -2.0 01:01:58 10° NNW 01:03:47 26° NNW 01:03:47 26° NNW visible
